Location: Contre
(49.7477°N, 2.0963°E)
Time: 09:08:05
(UTC+00:00)

Cosmos 1544 Rocket - Pass Details

Date: 03 February 2023
Orbit: 604 x 628 km, 82.5° (Epoch: 23 March)

Event Time Altitude Azimuth Distance (km) Brightness Sun altitude
Rises 17:20:16 0° 347° (NNW) 2,873 6.9 -5.4°
Reaches altitude 10° 17:22:30 10° 345° (NNW) 1,964 6.1 -5.8°
Maximum altitude 17:26:49 67° 263° (W) 659 4.0 -6.4°
Drops below altitude 10° 17:31:05 10° 182° (S) 1,952 6.4 -7.1°
Sets 17:33:18 0° 179° (S) 2,853 7.2 -7.4°
